Location: Newark
(7.0858°N, 171.3717°E)
Time: 06:20:09
(UTC+00:00)

Vanguard 1 - Visible Passes

Search period start: 27 November 2020 00:00
Search period end: 07 December 2020 00:00
Orbit: 650 x 3833 km, 34.2° (Epoch: 26 November)

Date Brightness Start Highest point End Pass type
(mag) Time Alt. Az. Time Alt. Az. Time Alt. Az.
27 Nov 11.9 16:39:21 14° N 16:39:21 14° N 16:41:04 10° NNE visible
28 Nov 12.0 16:59:25 11° N 16:59:25 11° N 17:00:38 10° N visible
04 Dec 13.0 09:36:50 10° S 09:38:28 11° SSE 09:38:28 11° SSE visible
05 Dec 12.9 09:55:26 10° SSW 09:58:10 14° S 09:58:10 14° S visible
06 Dec 12.9 10:15:20 10° SSW 10:17:52 16° SSW 10:17:52 16° SSW visible
